Wind_Speed
65 70 71 69 48 36 31 18 8 6 7 11 18 19 21 25 27 32 35 35 44 42 37 34 38 26 32 37 40 40 32 27 30 27 29 27 27 35 34 29 29 29 26 30
68 72 64 39 30 27 22 17 10 10 9 16 13 17 18 21 23 26 33 38 39 43 43 39 38 31 33 40 24 35 33 27 33 30 24 27 28 24 25 44 39 31 27 29
68 59 33 26 24 23 18 15 12 12 14 10 13 12 8 14 19 22 28 35 35 36 34 41 44 32 27 44 36 24 36 34 34 36 29 20 31 33 29 30 34 35 37 25
50 32 25 23 23 23 20 16 13 13 14 13 15 16 12 2 12 15 23 27 28 29 32 38 43 43 43 43 45 33 30 32 39 33 34 29 23 34 31 32 27 27 30 37
33 27 23 22 22 24 22 18 17 18 19 14 12 14 13 17 13 13 11 20 25 27 28 31 39 47 51 51 48 47 42 37 39 35 27 29 26 25 29 26 19 25 23 23
29 24 22 21 20 20 18 14 17 20 19 23 21 17 10 10 21 21 16 11 16 22 27 31 35 39 48 49 54 44 41 39 37 37 31 27 32 25 25 28 31 31 28 27
31 27 23 21 21 19 16 15 17 18 16 20 22 22 19 16 15 14 17 16 14 17 15 13 16 23 36 41 52 49 43 41 34 30 40 33 21 29 32 31 33 34 33 29
30 27 24 23 23 21 17 17 17 19 18 21 23 22 23 23 18 18 19 17 13 17 12 13 20 18 24 32 42 40 37 34 36 37 33 24 28 31 28 27 28 28 27 23
27 26 25 22 21 20 18 19 21 25 21 22 29 29 24 23 22 17 15 23 18 23 10 11 13 15 15 21 25 29 29 27 30 29 30 26 26 28 26 26 26 26 24 24
27 28 24 20 21 20 20 22 23 19 15 21 28 31 28 25 23 19 18 19 17 15 16 9 15 15 11 13 17 22 22 25 25 26 27 28 24 23 24 25 25 25 25 24
21 22 26 26 23 21 21 21 20 16 11 21 26 28 32 26 27 24 20 20 20 17 15 17 16 20 18 14 9 14 20 22 24 34 31 25 28 25 23 22 25 28 29 28
18 15 18 17 18 17 19 20 18 16 11 16 21 25 28 25 29 21 21 21 20 18 14 17 16 22 18 10 6 16 16 12 12 19 18 18 27 30 27 27 30 30 28 26
9 11 15 16 16 17 19 21 22 16 11 9 4 12 27 26 29 27 27 24 19 20 12 20 22 22 17 12 11 8 13 8 15 15 13 17 20 23 24 24 26 26 23 20
13 14 15 15 15 17 18 17 14 10 7 9 8 16 17 23 25 30 32 30 31 19 19 25 24 23 18 15 14 17 15 12 10 18 13 19 21 21 19 23 25 25 19 27
19 18 18 17 16 16 16 19 16 11 9 10 17 18 20 23 26 30 33 27 17 16 16 24 25 21 23 15 16 17 25 18 12 22 11 12 22 21 21 24 21 17 23 27
22 20 19 19 18 18 19 19 17 10 11 13 10 10 11 20 24 28 30 31 25 20 22 24 25 25 23 18 15 18 20 21 12 23 21 8 20 29 22 17 15 15 18 20
23 23 22 21 20 20 20 17 16 14 13 11 13 13 10 15 19 27 29 33 26 22 24 26 25 22 21 21 17 21 20 31 34 18 23 16 21 22 26 22 16 16 15 13
20 22 23 21 21 21 22 23 20 18 15 15 15 16 12 5 7 18 27 33 34 31 25 26 23 23 22 20 19 25 23 26 28 28 38 33 25 28 26 24 22 18 14 15
22 21 22 25 23 19 24 28 25 23 17 15 16 14 9 8 7 8 14 21 24 27 29 25 28 23 20 21 23 24 31 26 25 28 31 27 27 29 27 27 24 22 19 17
24 25 22 27 22 23 28 31 29 28 22 17 17 14 12 9 7 10 13 14 15 16 15 23 24 20 20 20 21 24 29 33 32 34 31 31 31 29 29 28 26 24 23 22
26 24 21 22 24 27 31 32 34 32 26 18 19 19 12 8 4 1 12 14 12 13 14 18 19 19 18 17 19 22 24 28 31 34 36 33 32 31 29 30 30 29 29 27
23 20 17 23 26 32 32 31 31 32 24 22 27 27 16 13 10 6 6 11 9 8 4 9 14 13 12 11 12 18 22 27 31 31 29 30 30 30 30 31 31 30 29 30
25 23 21 24 30 35 34 31 26 23 17 19 27 26 25 19 15 10 15 15 15 11 8 14 11 12 14 16 17 17 17 20 23 25 27 28 29 30 30 30 30 31 32 35
26 24 22 24 27 34 27 14 12 16 16 16 23 31 23 23 23 22 21 20 18 18 21 18 15 13 14 17 17 18 18 19 21 23 25 26 27 29 30 31 33 36 38 40
25 22 20 16 17 17 14 13 16 19 19 17 18 21 25 30 28 27 26 23 21 21 21 19 16 15 18 19 20 21 23 25 26 28 29 30 32 34 35 37 38 39 40 39
19 19 18 14 14 14 12 10 13 17 17 17 17 16 16 18 22 25 29 29 26 19 21 19 20 20 20 22 25 27 28 30 32 33 35 35 35 35 35 34 34 36 37 36
18 16 15 13 11 12 13 12 11 13 15 13 14 15 13 19 21 19 21 20 20 15 17 21 20 21 22 25 28 30 31 32 33 35 38 42 40 37 35 35 36 37 37 35
Wind_Direction
306 305 303 304 299 289 297 296 271 259 242 250 244 246 238 230 228 219 226 218 211 213 214 218 215 210 209 209 230 216 221 231 199 211 214 214 196 217 224 223 210 221 229 224
306 306 304 298 290 283 290 280 248 223 232 221 254 251 240 232 233 231 228 228 214 217 221 225 220 219 209 213 219 210 205 214 211 211 193 197 204 220 232 226 225 225 228 229
308 306 301 294 282 277 278 275 252 227 237 227 244 249 221 237 239 231 233 234 227 224 222 221 214 226 220 207 204 194 208 214 219 209 217 193 191 204 215 224 221 221 225 217
309 303 298 288 276 272 266 262 243 222 208 233 252 248 215 283 234 248 237 235 233 233 230 225 221 225 229 206 212 220 217 221 218 217 228 232 204 200 202 215 222 225 222 222
304 301 296 284 275 269 261 256 241 231 207 216 217 236 235 215 211 219 260 243 236 239 236 232 231 226 230 226 219 222 228 229 220 207 228 225 227 217 221 236 229 237 230 217
297 294 290 284 276 269 262 255 245 240 226 222 227 219 232 235 229 228 227 239 251 243 242 242 238 238 231 233 228 225 230 234 234 222 217 230 233 227 227 225 229 236 236 228
285 281 280 278 272 268 258 246 238 238 226 229 229 223 215 211 221 230 233 235 239 235 219 217 252 244 240 237 234 232 227 231 238 233 220 224 235 234 233 229 227 228 232 235
280 274 271 267 266 264 251 242 243 247 237 231 224 213 208 214 213 213 214 225 222 221 214 224 224 230 242 236 226 231 226 239 239 230 226 226 229 234 233 236 237 234 241 237
276 273 268 263 257 249 239 241 252 260 250 238 222 218 217 207 212 212 212 221 223 214 194 225 220 235 245 230 223 225 226 231 225 219 205 218 221 222 226 233 235 237 240 241
269 257 254 253 252 248 240 249 255 246 252 224 222 215 211 208 208 195 207 210 210 216 208 212 205 189 172 207 220 219 224 230 218 205 214 215 228 231 233 236 238 236 237 241
271 259 242 247 253 249 256 240 231 239 243 213 217 213 207 210 200 195 194 201 199 200 212 209 197 179 168 157 218 223 228 236 231 215 211 210 217 219 227 232 233 234 237 239
267 248 230 229 229 228 215 218 225 228 225 218 228 220 210 210 197 197 198 197 201 205 205 202 187 186 196 202 167 175 197 195 203 215 217 219 223 223 226 231 239 240 241 245
248 199 192 206 211 205 200 211 224 228 213 240 230 208 211 207 200 196 197 193 186 169 211 210 195 189 195 200 190 171 159 207 195 199 188 195 208 218 227 237 243 248 249 252
219 211 212 216 207 205 213 211 209 208 230 239 225 220 205 205 203 200 203 194 196 196 172 202 196 190 194 177 202 204 178 188 212 175 188 189 197 221 228 243 247 253 262 253
219 221 221 225 217 214 212 200 203 200 250 249 224 217 208 206 203 207 207 207 192 229 185 201 207 209 199 186 179 204 198 197 186 213 197 231 225 232 249 242 255 258 247 247
222 220 219 219 221 218 216 201 206 198 208 220 227 200 217 207 207 207 209 203 199 200 202 205 213 213 203 199 188 191 201 200 221 209 220 172 233 228 236 263 246 242 252 254
222 220 218 213 217 217 217 199 185 193 216 214 186 173 177 197 203 202 206 207 207 212 211 214 209 216 205 194 193 205 200 207 217 204 213 210 240 239 241 242 224 242 256 276
221 219 218 213 211 215 203 180 188 200 191 175 167 156 151 162 195 201 201 210 218 222 229 221 215 220 214 202 217 208 200 201 216 230 232 235 245 238 236 239 237 245 251 278
214 216 213 210 208 202 193 183 189 192 190 191 172 164 167 152 183 207 192 207 218 223 230 233 218 221 231 221 218 218 219 231 221 219 221 229 234 235 236 241 248 253 257 265
210 213 216 210 195 186 186 191 197 201 194 192 188 188 145 145 174 216 226 218 227 224 209 206 220 246 250 233 228 226 228 233 240 238 242 245 237 236 242 247 255 261 264 267
209 208 208 197 192 180 188 198 203 211 212 203 194 190 166 135 99 194 215 234 229 233 238 249 256 258 247 239 240 236 230 229 233 241 241 237 234 240 244 247 253 261 265 267
196 197 197 190 183 181 191 201 203 216 214 201 196 198 185 165 171 191 192 207 247 232 239 262 256 253 245 233 241 241 240 232 233 236 236 234 240 248 250 254 261 264 264 267
181 179 186 186 186 186 193 201 201 208 205 200 204 205 210 193 174 222 219 227 216 216 194 249 263 250 252 252 248 245 236 233 232 234 236 238 243 246 253 258 261 265 269 272
173 172 176 183 187 196 196 194 180 180 186 199 200 200 202 200 207 216 220 228 226 221 209 219 237 244 249 249 249 249 248 246 246 247 248 250 253 257 261 263 266 267 269 271
167 172 177 180 184 174 158 156 172 182 191 194 196 204 210 215 222 228 230 233 237 235 234 231 238 242 245 254 258 261 264 263 262 260 259 259 260 261 263 265 268 271 273 276
184 188 189 186 180 181 171 178 198 205 207 208 207 208 216 225 233 235 235 236 238 244 243 241 246 252 257 260 262 263 264 265 265 265 265 267 268 271 274 274 271 275 281 281
179 181 187 196 207 202 185 185 202 208 209 217 222 224 226 231 234 245 258 250 217 206 228 248 258 268 272 276 277 277 278 279 281 281 278 274 271 277 274 273 274 275 276 277
Height
5519 5512 5504 5497 5492 5491 5488 5487 5486 5486 5486 5490 5493 5496 5500 5507 5512 5516 5523 5526 5535 5540 5544 5550 5554 5558 5560 5564 5565 5572 5579 5586 5593 5596 5597 5604 5609 5617 5621 5623 5630 5633 5638 5645
5505 5497 5487 5484 5484 5485 5484 5483 5484 5485 5485 5488 5491 5494 5497 5500 5506 5512 5517 5518 5525 5531 5538 5544 5547 5548 5550 5556 5562 5564 5575 5580 5585 5589 5594 5598 5604 5611 5616 5617 5623 5626 5633 5639
5492 5482 5476 5476 5477 5479 5479 5480 5482 5485 5484 5486 5490 5492 5495 5499 5502 5506 5510 5513 5519 5524 5529 5533 5540 5539 5542 5548 5557 5557 5566 5574 5579 5583 5584 5592 5596 5600 5605 5608 5613 5620 5625 5635
5481 5475 5472 5471 5471 5474 5475 5475 5478 5481 5483 5485 5486 5488 5493 5493 5498 5501 5503 5507 5513 5517 5521 5525 5531 5533 5536 5544 5548 5552 5559 5567 5573 5578 5581 5586 5594 5597 5600 5603 5607 5612 5621 5625
5473 5470 5468 5466 5467 5468 5470 5472 5474 5475 5480 5481 5482 5486 5488 5491 5495 5497 5500 5502 5504 5508 5514 5519 5523 5527 5532 5537 5542 5548 5553 5561 5566 5573 5577 5581 5586 5594 5598 5600 5603 5608 5614 5618
5468 5464 5463 5462 5462 5463 5465 5467 5468 5470 5474 5477 5480 5483 5485 5488 5490 5493 5495 5497 5500 5504 5507 5510 5516 5521 5525 5532 5538 5544 5551 5557 5563 5570 5573 5577 5582 5590 5593 5597 5601 5605 5609 5614
5460 5458 5457 5457 5457 5459 5461 5462 5463 5466 5470 5471 5475 5479 5481 5483 5485 5488 5492 5495 5497 5500 5502 5506 5509 5512 5517 5523 5529 5538 5547 5553 5557 5563 5566 5571 5581 5580 5584 5588 5590 5593 5596 5602
5452 5451 5451 5451 5452 5454 5457 5457 5459 5461 5464 5466 5469 5473 5475 5478 5482 5484 5488 5491 5493 5496 5500 5503 5504 5508 5510 5514 5522 5533 5541 5546 5550 5556 5561 5569 5574 5575 5578 5581 5584 5587 5591 5595
5444 5444 5444 5445 5446 5448 5451 5453 5454 5455 5458 5462 5463 5467 5472 5475 5478 5482 5485 5487 5489 5492 5496 5501 5502 5506 5510 5514 5521 5529 5534 5539 5544 5549 5554 5561 5563 5567 5571 5575 5577 5580 5584 5588
5434 5435 5438 5439 5442 5444 5446 5448 5448 5450 5453 5454 5455 5461 5466 5470 5474 5478 5480 5483 5488 5492 5495 5497 5501 5505 5509 5514 5520 5527 5531 5534 5539 5544 5549 5555 5558 5563 5566 5570 5575 5575 5577 5581
5426 5427 5430 5434 5437 5439 5441 5443 5445 5448 5449 5449 5451 5455 5461 5466 5470 5474 5479 5482 5486 5490 5493 5497 5500 5504 5507 5513 5518 5520 5525 5529 5533 5538 5543 5552 5553 5557 5561 5564 5564 5567 5569 5573
5421 5422 5424 5428 5432 5435 5438 5440 5442 5444 5445 5448 5449 5454 5459 5464 5469 5474 5477 5479 5483 5488 5492 5496 5498 5501 5505 5510 5514 5517 5522 5527 5530 5536 5543 5545 5549 5553 5556 5557 5559 5560 5565 5567
5418 5419 5423 5427 5430 5433 5436 5437 5439 5441 5445 5447 5448 5452 5454 5459 5465 5469 5472 5477 5481 5485 5490 5493 5496 5498 5502 5508 5511 5515 5521 5524 5528 5533 5537 5541 5544 5546 5548 5550 5552 5555 5558 5561
5417 5419 5422 5425 5428 5431 5434 5436 5437 5440 5444 5446 5449 5448 5454 5457 5462 5465 5467 5475 5477 5482 5484 5488 5493 5496 5499 5504 5506 5512 5517 5523 5527 5531 5534 5537 5539 5541 5545 5546 5547 5549 5552 5551
5413 5416 5419 5422 5426 5429 5432 5433 5436 5438 5442 5445 5446 5447 5451 5454 5459 5462 5465 5473 5478 5479 5482 5487 5492 5495 5498 5502 5506 5510 5514 5519 5524 5527 5529 5532 5535 5538 5536 5538 5543 5546 5545 5546
5408 5412 5415 5419 5422 5426 5428 5431 5435 5437 5440 5441 5443 5446 5450 5454 5457 5461 5465 5472 5475 5477 5481 5485 5490 5493 5497 5501 5505 5510 5513 5517 5520 5523 5527 5527 5527 5531 5533 5535 5537 5538 5539 5541
5403 5407 5411 5415 5419 5422 5427 5432 5435 5437 5438 5440 5442 5445 5448 5452 5455 5459 5463 5468 5473 5476 5480 5485 5489 5492 5493 5499 5503 5505 5509 5510 5513 5518 5521 5522 5523 5527 5529 5532 5535 5534 5535 5534
5399 5403 5407 5411 5416 5419 5424 5429 5432 5436 5438 5440 5442 5446 5450 5453 5456 5459 5463 5467 5471 5475 5480 5485 5488 5490 5493 5496 5498 5500 5504 5508 5510 5511 5513 5516 5520 5522 5524 5525 5528 5528 5530 5528
5395 5399 5403 5407 5411 5417 5423 5428 5431 5435 5439 5440 5443 5447 5451 5453 5456 5459 5462 5465 5469 5473 5475 5481 5484 5487 5489 5493 5495 5497 5499 5501 5504 5505 5508 5511 5513 5514 5516 5518 5520 5521 5523 5524
5390 5395 5400 5403 5411 5415 5421 5426 5429 5433 5435 5440 5444 5447 5451 5453 5455 5457 5460 5463 5465 5468 5474 5476 5480 5483 5484 5487 5490 5493 5495 5496 5498 5499 5503 5505 5507 5509 5511 5512 5514 5515 5516 5517
5387 5393 5398 5404 5408 5413 5418 5422 5425 5428 5434 5440 5445 5448 5451 5453 5455 5456 5458 5461 5464 5467 5472 5473 5475 5477 5478 5483 5485 5487 5488 5490 5491 5492 5495 5497 5500 5503 5505 5506 5507 5507 5508 5509
5387 5393 5399 5401 5406 5411 5415 5418 5423 5427 5434 5439 5443 5447 5450 5452 5455 5457 5459 5461 5462 5465 5468 5469 5470 5473 5475 5478 5479 5479 5480 5481 5483 5485 5488 5491 5493 5495 5496 5498 5498 5499 5500 5500
5386 5392 5396 5400 5404 5408 5412 5416 5423 5428 5434 5438 5441 5445 5449 5452 5453 5456 5458 5459 5462 5464 5466 5466 5469 5470 5471 5472 5473 5474 5475 5477 5478 5480 5482 5484 5485 5487 5488 5489 5490 5491 5491 5491
5388 5392 5396 5400 5404 5408 5414 5420 5425 5429 5433 5435 5438 5443 5447 5450 5451 5452 5454 5457 5458 5461 5463 5464 5466 5467 5467 5467 5468 5469 5471 5472 5473 5474 5476 5477 5478 5479 5480 5480 5480 5480 5480 5479
5390 5394 5399 5403 5409 5414 5417 5421 5424 5427 5429 5433 5436 5440 5443 5445 5447 5450 5452 5454 5454 5456 5459 5462 5462 5463 5463 5463 5464 5465 5465 5466 5467 5468 5468 5469 5469 5469 5469 5469 5469 5468 5467 5466
5393 5398 5402 5406 5410 5414 5418 5421 5424 5427 5429 5431 5434 5436 5439 5440 5442 5444 5446 5448 5450 5454 5454 5456 5457 5458 5458 5458 5458 5458 5458 5458 5458 5457 5457 5457 5457 5458 5458 5457 5457 5456 5455 5453
5396 5401 5405 5408 5411 5414 5418 5421 5423 5425 5428 5430 5432 5434 5436 5436 5438 5440 5441 5444 5448 5448 5449 5450 5450 5451 5451 5450 5450 5450 5449 5448 5448 5447 5447 5446 5446 5446 5445 5445 5444 5443 5443 5442